EW1382 Weather Reports


Display with metric or nautical units.
time (UTC)temp
F
wind
direction
speed
MPH
gust
MPH
rain 1hr
in
rain 24hr
in
rain mn
in
humidity
%
barometer
mb
20181211133321 30 206 2.0 4.0 0.00 0.00 0.00 73 1017.3
20181211131828 30 210 1.0 3.0 0.00 0.00 0.00 74 1017.4
20181211130318 29 175 1.0 2.0 0.00 0.00 0.00 74 1017.4
20181211124823 29 187 2.0 3.0 0.00 0.00 0.00 73 1017.3
20181211123330 29 201 1.0 3.0 0.00 0.00 0.00 73 1017.5
20181211121820 30 161 1.0 3.0 0.00 0.00 0.00 73 1017.5
20181211120323 30 170 2.0 4.0 0.00 0.00 0.00 73 1017.6
20181211114816 30 211 2.0 3.0 0.00 0.00 0.00 73 1017.7
20181211113329 30 202 1.0 5.0 0.00 0.00 0.00 73 1017.8
20181211111813 30 184 3.0 5.0 0.00 0.00 0.00 73 1017.7
20181211110326 30 186 1.0 3.0 0.00 0.00 0.00 73 1017.8
20181211104825 30 212 3.0 5.0 0.00 0.00 0.00 72 1017.7
20181211103326 30 210 2.0 6.0 0.00 0.00 0.00 72 1017.8
20181211101815 30 159 4.0 6.0 0.00 0.00 0.00 72 1017.7
20181211100319 30 189 3.0 4.0 0.00 0.00 0.00 72 1017.8
20181211094830 30 176 3.0 6.0 0.00 0.00 0.00 73 1017.9
20181211093314 30 185 3.0 6.0 0.00 0.00 0.00 73 1017.9
20181211091821 30 176 3.0 7.0 0.00 0.00 0.00 73 1018.0
20181211090314 30 229 3.0 6.0 0.00 0.00 0.00 73 1018.2
20181211084815 30 168 4.0 7.0 0.00 0.00 0.00 72 1018.4
20181211083328 30 195 4.0 7.0 0.00 0.00 0.00 72 1018.6
20181211080324 30 185 3.0 7.0 0.00 0.00 0.00 72 1019.0
20181211074831 30 181 4.0 6.0 0.00 0.00 0.00 72 1019.2
20181211073316 30 163 3.0 5.0 0.00 0.00 0.00 73 1019.1
20181211071821 30 174 4.0 7.0 0.00 0.00 0.00 72 1019.2
20181211070410 30 194 3.0 5.0 0.00 0.00 0.00 73 1019.3
20181211064827 30 202 3.0 4.0 0.00 0.00 0.00 73 1019.3
20181211063335 30 171 3.0 5.0 0.00 0.00 0.00 75 1019.2
20181211061830 30 203 3.0 8.0 0.00 0.00 0.00 74 1019.2
20181211060313 30 164 3.0 4.0 0.00 0.00 0.00 78 1019.2
20181211054817 30 174 1.0 3.0 0.00 0.00 0.00 78 1019.4
20181211053319 30 200 0.0 2.0 0.00 0.00 0.00 78 1019.5
20181211051826 29 219 1.0 2.0 0.00 0.00 0.00 79 1019.6
20181211050331 29 244 0.0 1.0 0.00 0.00 0.00 79 1019.8
20181211044813 29 188 0.0 4.0 0.00 0.00 0.00 79 1019.9
20181211043324 29 170 3.0 4.0 0.00 0.00 0.00 79 1019.9
20181211041821 29 208 1.0 3.0 0.00 0.00 0.00 79 1020.1
20181211040315 29 212 0.0 2.0 0.00 0.00 0.00 79 1020.1
20181211034834 29 200 2.0 3.0 0.00 0.00 0.00 78 1020.2
20181211033312 29 173 1.0 2.0 0.00 0.00 0.00 79 1020.2
20181211031818 29 198 2.0 4.0 0.00 0.00 0.00 79 1020.2
20181211030324 29 169 3.0 4.0 0.00 0.00 0.00 79 1020.2
20181211024831 29 205 2.0 4.0 0.00 0.00 0.00 79 1020.3
20181211023316 29 174 1.0 3.0 0.00 0.00 0.00 79 1020.4
20181211021818 28 173 2.0 4.0 0.00 0.00 0.00 79 1020.5
20181211020330 28 168 3.0 5.0 0.00 0.00 0.00 79 1020.5
20181211014814 28 214 2.0 5.0 0.00 0.00 0.00 79 1020.6
20181211013320 28 198 3.0 5.0 0.00 0.00 0.00 79 1020.6
20181211011818 28 163 3.0 5.0 0.00 0.00 0.00 80 1020.6
20181211010325 28 172 4.0 6.0 0.00 0.00 0.00 79 1020.7
20181211004821 28 188 1.0 4.0 0.00 0.00 0.00 80 1020.9
20181211003327 28 223 4.0 6.0 0.00 0.00 0.00 80 1020.9
20181211001814 28 198 3.0 5.0 0.00 0.00 0.00 79 1020.9
20181211000321 28 191 2.0 3.0 0.00 0.00 0.00 81 1021.2
20181210234823 28 128 0.0 1.0 0.00 0.00 0.00 80 1021.1
20181210233336 28 127 0.0 1.0 0.00 0.00 0.00 80 1021.1
20181210231822 28 127 0.0 1.0 0.00 0.00 0.00 79 1021.2
20181210230335 28 132 1.0 3.0 0.00 0.00 0.00 80 1021.1
20181210224831 28 131 1.0 1.0 0.00 0.00 0.00 81 1021.1
20181210223318 28 112 1.0 1.0 0.00 0.00 0.00 79 1021.2
20181210221819 28 89 0.0 1.0 0.00 0.00 0.00 79 1021.3
20181210220327 28 89 0.0 1.0 0.00 0.00 0.00 79 1021.3
20181210214813 28 89 0.0 2.0 0.00 0.00 0.00 79 1021.2
20181210213319 28 112 2.0 4.0 0.00 0.00 0.00 80 1021.2
20181210211822 28 84 3.0 4.0 0.00 0.00 0.00 80 1021.2
20181210210331 28 41 1.0 3.0 0.00 0.00 0.00 79 1021.5
20181210204814 28 69 2.0 4.0 0.00 0.00 0.00 79 1021.6
20181210203324 28 68 2.0 5.0 0.00 0.00 0.00 79 1021.5
20181210201821 29 50 5.0 7.0 0.00 0.00 0.00 79 1021.4
20181210200328 29 64 4.0 6.0 0.00 0.00 0.00 79 1021.4
20181210194829 29 48 5.0 9.0 0.00 0.00 0.00 79 1021.3
20181210193316 29 41 6.0 8.0 0.00 0.00 0.00 79 1021.4
20181210191822 29 40 5.0 7.0 0.00 0.00 0.00 80 1021.4
20181210190329 29 49 5.0 10.0 0.00 0.00 0.00 79 1021.4
20181210184815 31 54 3.0 5.0 0.00 0.00 0.00 79 1021.3
20181210183317 31 33 4.0 6.0 0.00 0.00 0.00 78 1021.1
20181210181819 31 51 3.0 4.0 0.00 0.00 0.00 78 1021.2
20181210180330 31 18 3.0 5.0 0.00 0.00 0.00 78 1021.2
20181210174827 32 353 3.0 4.0 0.00 0.00 0.00 78 1021.2
20181210173317 32 5 4.0 7.0 0.00 0.00 0.00 77 1021.2
20181210171816 32 341 2.0 5.0 0.00 0.00 0.00 77 1021.3
20181210170323 32 11 2.0 4.0 0.00 0.00 0.00 77 1021.4
20181210164829 31 333 1.0 3.0 0.00 0.00 0.00 77 1021.6
20181210163331 31 311 2.0 4.0 0.00 0.00 0.00 77 1021.7
20181210161817 31 334 3.0 6.0 0.00 0.00 0.00 77 1021.8
20181210160324 31 323 2.0 5.0 0.00 0.00 0.00 77 1021.8
20181210154821 31 318 2.0 6.0 0.00 0.00 0.00 77 1021.9
20181210153322 30 290 2.0 5.0 0.00 0.00 0.00 78 1022.0
20181210151825 30 294 2.0 5.0 0.00 0.00 0.00 78 1022.0
20181210150312 30 355 2.0 4.0 0.00 0.00 0.00 78 1021.9
20181210144817 29 316 1.0 3.0 0.00 0.00 0.00 78 1021.7
20181210143322 29 295 1.0 2.0 0.00 0.00 0.00 78 1021.6
20181210141824 29 293 1.0 3.0 0.00 0.00 0.00 78 1021.6
20181210140324 29 298 3.0 5.0 0.00 0.00 0.00 78 1021.4
20181210134827 29 342 0.0 4.0 0.00 0.00 0.00 79 1021.2